Location: Navalespino
(40.5894°N, 4.2660°W)
Time: 12:22:32
(UTC+00:00)

CSL-04 Debris - Pass Details

Date: 18 April 2024
Orbit: 822 x 844 km, 98.8° (Epoch: 26 May)

Event Time Altitude Azimuth Distance (km) Brightness Sun altitude
Exits shadow 20:04:43 - 162° (SSE) 2,825 6.5 -12.3°
Reaches altitude 10° 20:05:42 10° 161° (SSE) 2,439 6.2 -12.5°
Maximum altitude 20:11:07 82° 74° (ENE) 852 4.1 -13.4°
Drops below altitude 10° 20:16:36 10° 348° (NNW) 2,469 7.2 -14.3°
Sets 20:18:58 0° 348° (NNW) 3,410 8.0 -14.7°
